Year,Month,Day,Hour,Minute,Value (Times are PST for temperature in C)
2009,02,21,00,00,2.20
2009,02,21,00,01,2.20
2009,02,21,00,02,2.20
2009,02,21,00,03,2.20
2009,02,21,00,04,2.20
2009,02,21,00,05,2.20
2009,02,21,00,06,2.20
2009,02,21,00,07,2.20
2009,02,21,00,08,2.10
2009,02,21,00,09,2.10
2009,02,21,00,10,2.10
2009,02,21,00,11,2.10
2009,02,21,00,12,2.10
2009,02,21,00,13,2.10
2009,02,21,00,14,2.10
2009,02,21,00,15,2.10
2009,02,21,00,16,2.10
2009,02,21,00,17,2.10
2009,02,21,00,18,2.00
2009,02,21,00,19,2.00
2009,02,21,00,20,2.00
2009,02,21,00,21,2.00
2009,02,21,00,22,2.00
2009,02,21,00,23,2.00
2009,02,21,00,24,2.00
2009,02,21,00,25,2.00
2009,02,21,00,26,1.90
2009,02,21,00,27,1.90
2009,02,21,00,28,1.90
2009,02,21,00,29,1.90
2009,02,21,00,30,1.90
2009,02,21,00,31,1.90
2009,02,21,00,32,1.80
2009,02,21,00,33,1.80
2009,02,21,00,34,1.80
2009,02,21,00,35,1.80
2009,02,21,00,36,1.80
2009,02,21,00,37,1.80
2009,02,21,00,38,1.80
2009,02,21,00,39,1.80
2009,02,21,00,40,1.80
2009,02,21,00,41,1.80
2009,02,21,00,42,1.80
2009,02,21,00,43,1.80
2009,02,21,00,44,1.90
2009,02,21,00,45,1.90
2009,02,21,00,46,1.90
2009,02,21,00,47,1.90
2009,02,21,00,48,1.90
2009,02,21,00,49,1.90
2009,02,21,00,50,1.90
2009,02,21,00,51,1.90
2009,02,21,00,52,1.90
2009,02,21,00,53,1.90
2009,02,21,00,54,1.90
2009,02,21,00,55,1.90
2009,02,21,00,56,1.90
2009,02,21,00,57,1.90
2009,02,21,00,58,1.90
2009,02,21,00,59,1.90
2009,02,21,01,00,1.90
2009,02,21,01,01,1.90
2009,02,21,01,02,1.90
2009,02,21,01,03,1.90
2009,02,21,01,04,1.90
2009,02,21,01,05,1.90
2009,02,21,01,06,1.90
2009,02,21,01,07,1.90
2009,02,21,01,08,1.90
2009,02,21,01,09,1.90
2009,02,21,01,10,1.80
2009,02,21,01,11,1.80
2009,02,21,01,12,1.80
2009,02,21,01,13,1.80
2009,02,21,01,14,1.80
2009,02,21,01,15,1.80
2009,02,21,01,16,1.80
2009,02,21,01,17,1.80
2009,02,21,01,18,1.80
2009,02,21,01,19,1.80
2009,02,21,01,20,1.90
2009,02,21,01,21,1.90
2009,02,21,01,22,1.90
2009,02,21,01,23,1.90
2009,02,21,01,24,1.90
2009,02,21,01,25,1.90
2009,02,21,01,26,1.90
2009,02,21,01,27,1.90
2009,02,21,01,28,1.80
2009,02,21,01,29,1.80
2009,02,21,01,30,1.80
2009,02,21,01,31,1.80
2009,02,21,01,32,1.80
2009,02,21,01,33,1.80
2009,02,21,01,34,1.80
2009,02,21,01,35,1.80
2009,02,21,01,36,1.80
2009,02,21,01,37,1.80
2009,02,21,01,38,1.80
2009,02,21,01,39,1.80
2009,02,21,01,40,1.80
2009,02,21,01,41,1.80
2009,02,21,01,42,1.80
2009,02,21,01,43,1.70
2009,02,21,01,44,1.70
2009,02,21,01,45,1.70
2009,02,21,01,46,1.70
2009,02,21,01,47,1.70
2009,02,21,01,48,1.70
2009,02,21,01,49,1.70
2009,02,21,01,50,1.60
2009,02,21,01,51,1.60
2009,02,21,01,52,1.60
2009,02,21,01,53,1.60
2009,02,21,01,54,1.60
2009,02,21,01,55,1.60
2009,02,21,01,56,1.60
2009,02,21,01,57,1.60
2009,02,21,01,58,1.50
2009,02,21,01,59,1.50
2009,02,21,02,00,1.50
2009,02,21,02,01,1.60
2009,02,21,02,02,1.60
2009,02,21,02,03,1.60
2009,02,21,02,04,1.50
2009,02,21,02,05,1.50
2009,02,21,02,06,1.50
2009,02,21,02,07,1.50
2009,02,21,02,08,1.50
2009,02,21,02,09,1.50
2009,02,21,02,10,1.50
2009,02,21,02,11,1.50
2009,02,21,02,12,1.40
2009,02,21,02,13,1.40
2009,02,21,02,14,1.40
2009,02,21,02,15,1.40
2009,02,21,02,16,1.40
2009,02,21,02,17,1.40
2009,02,21,02,18,1.40
2009,02,21,02,19,1.40
2009,02,21,02,20,1.40
2009,02,21,02,21,1.30
2009,02,21,02,22,1.30
2009,02,21,02,23,1.30
2009,02,21,02,24,1.30
2009,02,21,02,25,1.30
2009,02,21,02,26,1.30
2009,02,21,02,27,1.30
2009,02,21,02,28,1.30
2009,02,21,02,29,1.30
2009,02,21,02,30,1.30
2009,02,21,02,31,1.30
2009,02,21,02,32,1.30
2009,02,21,02,33,1.30
2009,02,21,02,34,1.30
2009,02,21,02,35,1.30
2009,02,21,02,36,1.30
2009,02,21,02,37,1.30
2009,02,21,02,38,1.30
2009,02,21,02,39,1.30
2009,02,21,02,40,1.30
2009,02,21,02,41,1.30
2009,02,21,02,42,1.30
2009,02,21,02,43,1.40
2009,02,21,02,44,1.40
2009,02,21,02,45,1.40
2009,02,21,02,46,1.30
2009,02,21,02,47,1.30
2009,02,21,02,48,1.40
2009,02,21,02,49,1.40
2009,02,21,02,50,1.40
2009,02,21,02,51,1.40
2009,02,21,02,52,1.30
2009,02,21,02,53,1.30
2009,02,21,02,54,1.30
2009,02,21,02,55,1.30
2009,02,21,02,56,1.30
2009,02,21,02,57,1.30
2009,02,21,02,58,1.30
2009,02,21,02,59,1.30
2009,02,21,03,00,1.20
2009,02,21,03,01,1.20
2009,02,21,03,02,1.10
2009,02,21,03,03,1.10
2009,02,21,03,04,1.10
2009,02,21,03,05,1.10
2009,02,21,03,06,1.10
2009,02,21,03,07,1.10
2009,02,21,03,08,1.10
2009,02,21,03,09,1.10
2009,02,21,03,10,1.00
2009,02,21,03,11,1.00
2009,02,21,03,12,1.00
2009,02,21,03,13,1.00
2009,02,21,03,14,1.00
2009,02,21,03,15,1.00
2009,02,21,03,16,1.00
2009,02,21,03,17,1.00
2009,02,21,03,18,1.00
2009,02,21,03,19,1.00
2009,02,21,03,20,1.00
2009,02,21,03,21,1.00
2009,02,21,03,22,1.00
2009,02,21,03,23,1.00
2009,02,21,03,24,1.00
2009,02,21,03,25,1.00
2009,02,21,03,26,1.00
2009,02,21,03,27,1.10
2009,02,21,03,28,1.10
2009,02,21,03,29,1.10
2009,02,21,03,30,1.20
2009,02,21,03,31,1.20
2009,02,21,03,32,1.20
2009,02,21,03,33,1.20
2009,02,21,03,34,1.20
2009,02,21,03,35,1.20
2009,02,21,03,36,1.20
2009,02,21,03,37,1.20
2009,02,21,03,38,1.30
2009,02,21,03,39,1.30
2009,02,21,03,40,1.30
2009,02,21,03,41,1.30
2009,02,21,03,42,1.20
2009,02,21,03,43,1.30
2009,02,21,03,44,1.30
2009,02,21,03,45,1.20
2009,02,21,03,46,1.20
2009,02,21,03,47,1.20
2009,02,21,03,48,1.20
2009,02,21,03,49,1.20
2009,02,21,03,50,1.20
2009,02,21,03,51,1.20
2009,02,21,03,52,1.20
2009,02,21,03,53,1.20
2009,02,21,03,54,1.20
2009,02,21,03,55,1.20
2009,02,21,03,56,1.20
2009,02,21,03,57,1.20
2009,02,21,03,58,1.20
2009,02,21,03,59,1.20
2009,02,21,04,00,1.20
2009,02,21,04,01,1.20
2009,02,21,04,02,1.20
2009,02,21,04,03,1.20
2009,02,21,04,04,1.20
2009,02,21,04,05,1.20
2009,02,21,04,06,1.20
2009,02,21,04,07,1.20
2009,02,21,04,08,1.20
2009,02,21,04,09,1.20
2009,02,21,04,10,1.20
2009,02,21,04,11,1.20
2009,02,21,04,12,1.20
2009,02,21,04,13,1.30
2009,02,21,04,14,1.30
2009,02,21,04,15,1.30
2009,02,21,04,16,1.30
2009,02,21,04,17,1.30
2009,02,21,04,18,1.30
2009,02,21,04,19,1.30
2009,02,21,04,20,1.30
2009,02,21,04,21,1.30
2009,02,21,04,22,1.40
2009,02,21,04,23,1.40
2009,02,21,04,24,1.40
2009,02,21,04,25,1.40
2009,02,21,04,26,1.40
2009,02,21,04,27,1.50
2009,02,21,04,28,1.50
2009,02,21,04,29,1.50
2009,02,21,04,30,1.50
2009,02,21,04,31,1.50
2009,02,21,04,32,1.50
2009,02,21,04,33,1.50
2009,02,21,04,34,1.50
2009,02,21,04,35,1.50
2009,02,21,04,36,1.50
2009,02,21,04,37,1.40
2009,02,21,04,38,1.40
2009,02,21,04,39,1.40
2009,02,21,04,40,1.30
2009,02,21,04,41,1.30
2009,02,21,04,42,1.30
2009,02,21,04,43,1.30
2009,02,21,04,44,1.30
2009,02,21,04,45,1.30
2009,02,21,04,46,1.30
2009,02,21,04,47,1.30
2009,02,21,04,48,1.30
2009,02,21,04,49,1.20
2009,02,21,04,50,1.20
2009,02,21,04,51,1.20
2009,02,21,04,52,1.20
2009,02,21,04,53,1.20
2009,02,21,04,54,1.30
2009,02,21,04,55,1.30
2009,02,21,04,56,1.20
2009,02,21,04,57,1.20
2009,02,21,04,58,1.20
2009,02,21,04,59,1.20
2009,02,21,05,00,1.20
2009,02,21,05,01,1.10
2009,02,21,05,02,1.10
2009,02,21,05,03,1.10
2009,02,21,05,04,1.10
2009,02,21,05,05,1.10
2009,02,21,05,06,1.10
2009,02,21,05,07,1.10
2009,02,21,05,08,1.20
2009,02,21,05,09,1.20
2009,02,21,05,10,1.20
2009,02,21,05,11,1.20
2009,02,21,05,12,1.30
2009,02,21,05,13,1.30
2009,02,21,05,14,1.30
2009,02,21,05,15,1.30
2009,02,21,05,16,1.30
2009,02,21,05,17,1.30
2009,02,21,05,18,1.30
2009,02,21,05,19,1.30
2009,02,21,05,20,1.30
2009,02,21,05,21,1.30
2009,02,21,05,22,1.30
2009,02,21,05,23,1.30
2009,02,21,05,24,1.30
2009,02,21,05,25,1.30
2009,02,21,05,26,1.30
2009,02,21,05,27,1.30
2009,02,21,05,28,1.30
2009,02,21,05,29,1.30
2009,02,21,05,30,1.30
2009,02,21,05,31,1.30
2009,02,21,05,32,1.30
2009,02,21,05,33,1.30
2009,02,21,05,34,1.30
2009,02,21,05,35,1.30
2009,02,21,05,36,1.30
2009,02,21,05,37,1.30
2009,02,21,05,38,1.30
2009,02,21,05,39,1.30
2009,02,21,05,40,1.30
2009,02,21,05,41,1.30
2009,02,21,05,42,1.30
2009,02,21,05,43,1.30
2009,02,21,05,44,1.30
2009,02,21,05,45,1.30
2009,02,21,05,46,1.30
2009,02,21,05,47,1.30
2009,02,21,05,48,1.30
2009,02,21,05,49,1.30
2009,02,21,05,50,1.30
2009,02,21,05,51,1.30
2009,02,21,05,52,1.30
2009,02,21,05,53,1.30
2009,02,21,05,54,1.30
2009,02,21,05,55,1.30
2009,02,21,05,56,1.30
2009,02,21,05,57,1.30
2009,02,21,05,58,1.30
2009,02,21,05,59,1.30
2009,02,21,06,00,1.20
2009,02,21,06,01,1.20
2009,02,21,06,02,1.20
2009,02,21,06,03,1.20
2009,02,21,06,04,1.20
2009,02,21,06,05,1.10
2009,02,21,06,06,1.10
2009,02,21,06,07,1.10
2009,02,21,06,08,1.10
2009,02,21,06,09,1.10
2009,02,21,06,10,1.10
2009,02,21,06,11,1.10
2009,02,21,06,12,1.10
2009,02,21,06,13,1.10
2009,02,21,06,14,1.10
2009,02,21,06,15,1.10
2009,02,21,06,16,1.00
2009,02,21,06,17,1.00
2009,02,21,06,18,1.00
2009,02,21,06,19,1.10
2009,02,21,06,20,1.10
2009,02,21,06,21,1.10
2009,02,21,06,22,1.10
2009,02,21,06,23,1.10
2009,02,21,06,24,1.10
2009,02,21,06,25,1.10
2009,02,21,06,26,1.10
2009,02,21,06,27,1.10
2009,02,21,06,28,1.10
2009,02,21,06,29,1.10
2009,02,21,06,30,1.10
2009,02,21,06,31,1.10
2009,02,21,06,32,1.10
2009,02,21,06,33,1.10
2009,02,21,06,34,1.10
2009,02,21,06,35,1.10
2009,02,21,06,36,1.10
2009,02,21,06,37,1.10
2009,02,21,06,38,1.20
2009,02,21,06,39,1.20
2009,02,21,06,40,1.20
2009,02,21,06,41,1.20
2009,02,21,06,42,1.10
2009,02,21,06,43,1.10
2009,02,21,06,44,1.10
2009,02,21,06,45,1.10
2009,02,21,06,46,1.10
2009,02,21,06,47,1.10
2009,02,21,06,48,1.00
2009,02,21,06,49,1.00
2009,02,21,06,50,1.00
2009,02,21,06,51,1.00
2009,02,21,06,52,1.00
2009,02,21,06,53,0.90
2009,02,21,06,54,0.90
2009,02,21,06,55,0.90
2009,02,21,06,56,0.90
2009,02,21,06,57,0.90
2009,02,21,06,58,0.90
2009,02,21,06,59,0.90
2009,02,21,07,00,0.90
2009,02,21,07,01,0.90
2009,02,21,07,02,0.90
2009,02,21,07,03,0.90
2009,02,21,07,04,0.90
2009,02,21,07,05,0.90
2009,02,21,07,06,0.90
2009,02,21,07,07,0.90
2009,02,21,07,08,0.90
2009,02,21,07,09,0.90
2009,02,21,07,10,0.90
2009,02,21,07,11,0.80
2009,02,21,07,12,0.80
2009,02,21,07,13,0.80
2009,02,21,07,14,0.80
2009,02,21,07,15,0.80
2009,02,21,07,16,0.80
2009,02,21,07,17,0.80
2009,02,21,07,18,0.80
2009,02,21,07,19,0.80
2009,02,21,07,20,0.80
2009,02,21,07,21,0.80
2009,02,21,07,22,0.80
2009,02,21,07,23,0.80
2009,02,21,07,24,0.80
2009,02,21,07,25,0.80
2009,02,21,07,26,0.80
2009,02,21,07,27,0.80
2009,02,21,07,28,0.80
2009,02,21,07,29,0.80
2009,02,21,07,30,0.80
2009,02,21,07,31,0.80
2009,02,21,07,32,0.80
2009,02,21,07,33,0.80
2009,02,21,07,34,0.80
2009,02,21,07,35,0.80
2009,02,21,07,36,0.80
2009,02,21,07,37,0.80
2009,02,21,07,38,0.80
2009,02,21,07,39,0.80
2009,02,21,07,40,0.80
2009,02,21,07,41,0.80
2009,02,21,07,42,0.80
2009,02,21,07,43,0.80
2009,02,21,07,44,0.80
2009,02,21,07,45,0.80
2009,02,21,07,46,0.80
2009,02,21,07,47,0.80
2009,02,21,07,48,0.80
2009,02,21,07,49,0.80
2009,02,21,07,50,0.80
2009,02,21,07,51,0.90
2009,02,21,07,52,0.90
2009,02,21,07,53,0.90
2009,02,21,07,54,1.00
2009,02,21,07,55,1.00
2009,02,21,07,56,1.00
2009,02,21,07,57,1.10
2009,02,21,07,58,1.10
2009,02,21,07,59,1.10
2009,02,21,08,00,1.10
2009,02,21,08,01,1.10
2009,02,21,08,02,1.10
2009,02,21,08,03,1.10
2009,02,21,08,04,1.20
2009,02,21,08,05,1.20
2009,02,21,08,06,1.20
2009,02,21,08,07,1.20
2009,02,21,08,08,1.20
2009,02,21,08,09,1.20
2009,02,21,08,10,1.20
2009,02,21,08,11,1.20
2009,02,21,08,12,1.20
2009,02,21,08,13,1.20
2009,02,21,08,14,1.20
2009,02,21,08,15,1.20
2009,02,21,08,16,1.20
2009,02,21,08,17,1.20
2009,02,21,08,18,1.30
2009,02,21,08,19,1.30
2009,02,21,08,20,1.30
2009,02,21,08,21,1.30
2009,02,21,08,22,1.30
2009,02,21,08,23,1.30
2009,02,21,08,24,1.30
2009,02,21,08,25,1.30
2009,02,21,08,26,1.30
2009,02,21,08,27,1.40
2009,02,21,08,28,1.40
2009,02,21,08,29,1.50
2009,02,21,08,30,1.50
2009,02,21,08,31,1.50
2009,02,21,08,32,1.60
2009,02,21,08,33,1.60
2009,02,21,08,34,1.60
2009,02,21,08,35,1.70
2009,02,21,08,36,1.70
2009,02,21,08,37,1.80
2009,02,21,08,38,1.80
2009,02,21,08,39,1.80
2009,02,21,08,40,1.80
2009,02,21,08,41,1.80
2009,02,21,08,42,1.80
2009,02,21,08,43,1.90
2009,02,21,08,44,1.90
2009,02,21,08,45,1.90
2009,02,21,08,46,1.90
2009,02,21,08,47,2.00
2009,02,21,08,48,2.00
2009,02,21,08,49,2.00
2009,02,21,08,50,2.10
2009,02,21,08,51,2.10
2009,02,21,08,52,2.20
2009,02,21,08,53,2.20
2009,02,21,08,54,2.20
2009,02,21,08,55,2.30
2009,02,21,08,56,2.40
2009,02,21,08,57,2.50
2009,02,21,08,58,2.50
2009,02,21,08,59,2.60
2009,02,21,09,00,2.70
2009,02,21,09,01,2.70
2009,02,21,09,02,2.80
2009,02,21,09,03,2.80
2009,02,21,09,04,2.90
2009,02,21,09,05,2.90
2009,02,21,09,06,2.90
2009,02,21,09,07,3.10
2009,02,21,09,08,3.10
2009,02,21,09,09,3.10
2009,02,21,09,10,3.10
2009,02,21,09,11,3.10
2009,02,21,09,12,3.10
2009,02,21,09,13,3.20
2009,02,21,09,14,3.20
2009,02,21,09,15,3.20
2009,02,21,09,16,3.10
2009,02,21,09,17,3.20
2009,02,21,09,18,3.20
2009,02,21,09,19,3.20
2009,02,21,09,20,3.30
2009,02,21,09,21,3.30
2009,02,21,09,22,3.30
2009,02,21,09,23,3.30
2009,02,21,09,24,3.30
2009,02,21,09,25,3.30
2009,02,21,09,26,3.30
2009,02,21,09,27,3.30
2009,02,21,09,28,3.30
2009,02,21,09,29,3.30
2009,02,21,09,30,3.30
2009,02,21,09,31,3.30
2009,02,21,09,32,3.30
2009,02,21,09,33,3.30
2009,02,21,09,34,3.30
2009,02,21,09,35,3.30
2009,02,21,09,36,3.30
2009,02,21,09,37,3.20
2009,02,21,09,38,3.20
2009,02,21,09,39,3.20
2009,02,21,09,40,3.20
2009,02,21,09,41,3.20
2009,02,21,09,42,3.20
2009,02,21,09,43,3.20
2009,02,21,09,44,3.20
2009,02,21,09,45,3.20
2009,02,21,09,46,3.20
2009,02,21,09,47,3.20
2009,02,21,09,48,3.20
2009,02,21,09,49,3.30
2009,02,21,09,50,3.30
2009,02,21,09,51,3.30
2009,02,21,09,52,3.30
2009,02,21,09,53,3.40
2009,02,21,09,54,3.50
2009,02,21,09,55,3.50
2009,02,21,09,56,3.60
2009,02,21,09,57,3.70
2009,02,21,09,58,3.80
2009,02,21,09,59,3.90
2009,02,21,10,00,3.90
2009,02,21,10,01,4.00
2009,02,21,10,02,4.00
2009,02,21,10,03,4.00
2009,02,21,10,04,4.10
2009,02,21,10,05,4.10
2009,02,21,10,06,4.20
2009,02,21,10,07,4.20
2009,02,21,10,08,4.20
2009,02,21,10,09,4.30
2009,02,21,10,10,4.40
2009,02,21,10,11,4.40
2009,02,21,10,12,4.50
2009,02,21,10,13,4.50
2009,02,21,10,14,4.60
2009,02,21,10,15,4.70
2009,02,21,10,16,4.80
2009,02,21,10,17,4.80
2009,02,21,10,18,4.90
2009,02,21,10,19,5.00
2009,02,21,10,20,5.10
2009,02,21,10,21,5.10
2009,02,21,10,22,5.20
2009,02,21,10,23,5.30
2009,02,21,10,24,5.30
2009,02,21,10,25,5.30
2009,02,21,10,26,5.40
2009,02,21,10,27,5.50
2009,02,21,10,28,5.50
2009,02,21,10,29,5.60
2009,02,21,10,30,5.70
2009,02,21,10,31,5.80
2009,02,21,10,32,5.90
2009,02,21,10,33,6.00
2009,02,21,10,34,6.10
2009,02,21,10,35,6.20
2009,02,21,10,36,6.20
2009,02,21,10,37,6.20
2009,02,21,10,38,6.30
2009,02,21,10,39,6.30
2009,02,21,10,40,6.30
2009,02,21,10,41,6.30
2009,02,21,10,42,6.20
2009,02,21,10,43,6.20
2009,02,21,10,44,6.20
2009,02,21,10,45,6.10
2009,02,21,10,46,6.00
2009,02,21,10,47,6.00
2009,02,21,10,48,5.90
2009,02,21,10,49,5.90
2009,02,21,10,50,5.90
2009,02,21,10,51,5.90
2009,02,21,10,52,5.90
2009,02,21,10,53,5.90
2009,02,21,10,54,5.90
2009,02,21,10,55,6.00
2009,02,21,10,56,6.00
2009,02,21,10,57,6.00
2009,02,21,10,58,6.10
2009,02,21,10,59,6.10
2009,02,21,11,00,6.10
2009,02,21,11,01,6.00
2009,02,21,11,02,6.00
2009,02,21,11,03,6.00
2009,02,21,11,04,6.00
2009,02,21,11,05,6.00
2009,02,21,11,06,6.00
2009,02,21,11,07,6.00
2009,02,21,11,08,6.00
2009,02,21,11,09,6.10
2009,02,21,11,10,6.10
2009,02,21,11,11,6.10
2009,02,21,11,12,6.20
2009,02,21,11,13,6.20
2009,02,21,11,14,6.20
2009,02,21,11,15,6.20
2009,02,21,11,16,6.30
2009,02,21,11,17,6.30
2009,02,21,11,18,6.40
2009,02,21,11,19,6.40
2009,02,21,11,20,6.50
2009,02,21,11,21,6.60
2009,02,21,11,22,6.60
2009,02,21,11,23,6.70
2009,02,21,11,24,6.70
2009,02,21,11,25,6.80
2009,02,21,11,26,6.80
2009,02,21,11,27,6.80
2009,02,21,11,28,6.90
2009,02,21,11,29,6.90
2009,02,21,11,30,6.90
2009,02,21,11,31,7.00
2009,02,21,11,32,7.00
2009,02,21,11,33,7.10
2009,02,21,11,34,7.10
2009,02,21,11,35,7.20
2009,02,21,11,36,7.30
2009,02,21,11,37,7.30
2009,02,21,11,38,7.30
2009,02,21,11,39,7.40
2009,02,21,11,40,7.50
2009,02,21,11,41,7.50
2009,02,21,11,42,7.60
2009,02,21,11,43,7.70
2009,02,21,11,44,7.70
2009,02,21,11,45,7.70
2009,02,21,11,46,7.70
2009,02,21,11,47,7.70
2009,02,21,11,48,7.70
2009,02,21,11,49,7.70
2009,02,21,11,50,7.70
2009,02,21,11,51,7.70
2009,02,21,11,52,7.60
2009,02,21,11,53,7.50
2009,02,21,11,54,7.50
2009,02,21,11,55,7.40
2009,02,21,11,56,7.40
2009,02,21,11,57,7.40
2009,02,21,11,58,7.30
2009,02,21,11,59,7.30
2009,02,21,12,00,7.30
2009,02,21,12,01,7.30
2009,02,21,12,02,7.30
2009,02,21,12,03,7.40
2009,02,21,12,04,7.40
2009,02,21,12,05,7.40
2009,02,21,12,06,7.40
2009,02,21,12,07,7.40
2009,02,21,12,08,7.30
2009,02,21,12,09,7.40
2009,02,21,12,10,7.40
2009,02,21,12,11,7.40
2009,02,21,12,12,7.40
2009,02,21,12,13,7.40
2009,02,21,12,14,7.50
2009,02,21,12,15,7.50
2009,02,21,12,16,7.50
2009,02,21,12,17,7.50
2009,02,21,12,18,7.50
2009,02,21,12,19,7.50
2009,02,21,12,20,7.50
2009,02,21,12,21,7.50
2009,02,21,12,22,7.50
2009,02,21,12,23,7.50
2009,02,21,12,24,7.50
2009,02,21,12,25,7.60
2009,02,21,12,26,7.60
2009,02,21,12,27,7.60
2009,02,21,12,28,7.70
2009,02,21,12,29,7.70
2009,02,21,12,30,7.70
2009,02,21,12,31,7.70
2009,02,21,12,32,7.70
2009,02,21,12,33,7.80
2009,02,21,12,34,7.80
2009,02,21,12,35,7.90
2009,02,21,12,36,8.00
2009,02,21,12,37,8.10
2009,02,21,12,38,8.20
2009,02,21,12,39,8.20
2009,02,21,12,40,8.30
2009,02,21,12,41,8.30
2009,02,21,12,42,8.40
2009,02,21,12,43,8.50
2009,02,21,12,44,8.50
2009,02,21,12,45,8.60
2009,02,21,12,46,8.70
2009,02,21,12,47,8.70
2009,02,21,12,48,8.80
2009,02,21,12,49,8.80
2009,02,21,12,50,8.80
2009,02,21,12,51,8.80
2009,02,21,12,52,8.80
2009,02,21,12,53,8.90
2009,02,21,12,54,8.90
2009,02,21,12,55,9.00
2009,02,21,12,56,9.00
2009,02,21,12,57,9.00
2009,02,21,12,58,9.10
2009,02,21,12,59,9.10
2009,02,21,13,00,9.10
2009,02,21,13,01,9.10
2009,02,21,13,02,9.20
2009,02,21,13,03,9.10
2009,02,21,13,04,9.10
2009,02,21,13,05,9.10
2009,02,21,13,06,9.10
2009,02,21,13,07,9.10
2009,02,21,13,08,9.10
2009,02,21,13,09,9.10
2009,02,21,13,10,9.00
2009,02,21,13,11,9.00
2009,02,21,13,12,9.10
2009,02,21,13,13,9.10
2009,02,21,13,14,9.20
2009,02,21,13,15,9.20
2009,02,21,13,16,9.20
2009,02,21,13,17,9.20
2009,02,21,13,18,9.20
2009,02,21,13,19,9.30
2009,02,21,13,20,9.30
2009,02,21,13,21,9.30
2009,02,21,13,22,9.30
2009,02,21,13,23,9.40
2009,02,21,13,24,9.40
2009,02,21,13,25,9.40
2009,02,21,13,26,9.40
2009,02,21,13,27,9.40
2009,02,21,13,28,9.40
2009,02,21,13,29,9.40
2009,02,21,13,30,9.40
2009,02,21,13,31,9.40
2009,02,21,13,32,9.40
2009,02,21,13,33,9.40
2009,02,21,13,34,9.40
2009,02,21,13,35,9.40
2009,02,21,13,36,9.40
2009,02,21,13,37,9.30
2009,02,21,13,38,9.30
2009,02,21,13,39,9.20
2009,02,21,13,40,9.20
2009,02,21,13,41,9.20
2009,02,21,13,42,9.20
2009,02,21,13,43,9.20
2009,02,21,13,44,9.20
2009,02,21,13,45,9.20
2009,02,21,13,46,9.20
2009,02,21,13,47,9.20
2009,02,21,13,48,9.20
2009,02,21,13,49,9.20
2009,02,21,13,50,9.20
2009,02,21,13,51,9.20
2009,02,21,13,52,9.20
2009,02,21,13,53,9.20
2009,02,21,13,54,9.20
2009,02,21,13,55,9.20
2009,02,21,13,56,9.20
2009,02,21,13,57,9.20
2009,02,21,13,58,9.20
2009,02,21,13,59,9.20
2009,02,21,14,00,9.20
2009,02,21,14,01,9.20
2009,02,21,14,02,9.20
2009,02,21,14,03,9.20
2009,02,21,14,04,9.20
2009,02,21,14,05,9.20
2009,02,21,14,06,9.20
2009,02,21,14,07,9.20
2009,02,21,14,08,9.20
2009,02,21,14,09,9.20
2009,02,21,14,10,9.20
2009,02,21,14,11,9.20
2009,02,21,14,12,9.20
2009,02,21,14,13,9.20
2009,02,21,14,14,9.20
2009,02,21,14,15,9.20
2009,02,21,14,16,9.20
2009,02,21,14,17,9.20
2009,02,21,14,18,9.20
2009,02,21,14,19,9.20
2009,02,21,14,20,9.20
2009,02,21,14,21,9.20
2009,02,21,14,22,9.20
2009,02,21,14,23,9.20
2009,02,21,14,24,9.20
2009,02,21,14,25,9.10
2009,02,21,14,26,9.10
2009,02,21,14,27,9.10
2009,02,21,14,28,9.00
2009,02,21,14,29,9.00
2009,02,21,14,30,9.00
2009,02,21,14,31,9.00
2009,02,21,14,32,9.00
2009,02,21,14,33,9.00
2009,02,21,14,34,9.00
2009,02,21,14,35,9.10
2009,02,21,14,36,9.10
2009,02,21,14,37,9.10
2009,02,21,14,38,9.20
2009,02,21,14,39,9.20
2009,02,21,14,40,9.20
2009,02,21,14,41,9.30
2009,02,21,14,42,9.30
2009,02,21,14,43,9.40
2009,02,21,14,44,9.50
2009,02,21,14,45,9.60
2009,02,21,14,46,9.70
2009,02,21,14,47,9.70
2009,02,21,14,48,9.80
2009,02,21,14,49,9.90
2009,02,21,14,50,10.00
2009,02,21,14,51,10.10
2009,02,21,14,52,10.10
2009,02,21,14,53,10.20
2009,02,21,14,54,10.20
2009,02,21,14,55,10.20
2009,02,21,14,56,10.20
2009,02,21,14,57,10.30
2009,02,21,14,58,10.40
2009,02,21,14,59,10.40
2009,02,21,15,00,10.60
2009,02,21,15,01,10.60
2009,02,21,15,02,10.70
2009,02,21,15,03,10.80
2009,02,21,15,04,10.90
2009,02,21,15,05,11.00
2009,02,21,15,06,11.10
2009,02,21,15,07,11.10
2009,02,21,15,08,11.10
2009,02,21,15,09,11.10
2009,02,21,15,10,11.10
2009,02,21,15,11,11.10
2009,02,21,15,12,11.10
2009,02,21,15,13,11.10
2009,02,21,15,14,11.00
2009,02,21,15,15,10.90
2009,02,21,15,16,10.90
2009,02,21,15,17,10.90
2009,02,21,15,18,10.90
2009,02,21,15,19,10.80
2009,02,21,15,20,10.80
2009,02,21,15,21,10.80
2009,02,21,15,22,10.80
2009,02,21,15,23,10.90
2009,02,21,15,24,10.90
2009,02,21,15,25,10.90
2009,02,21,15,26,10.90
2009,02,21,15,27,10.90
2009,02,21,15,28,10.90
2009,02,21,15,29,10.80
2009,02,21,15,30,10.80
2009,02,21,15,31,10.70
2009,02,21,15,32,10.60
2009,02,21,15,33,10.60
2009,02,21,15,34,10.50
2009,02,21,15,35,10.40
2009,02,21,15,36,10.40
2009,02,21,15,37,10.40
2009,02,21,15,38,10.40
2009,02,21,15,39,10.40
2009,02,21,15,40,10.30
2009,02,21,15,41,10.30
2009,02,21,15,42,10.30
2009,02,21,15,43,10.20
2009,02,21,15,44,10.20
2009,02,21,15,45,10.20
2009,02,21,15,46,10.10
2009,02,21,15,47,10.10
2009,02,21,15,48,10.10
2009,02,21,15,49,10.00
2009,02,21,15,50,9.90
2009,02,21,15,51,9.90
2009,02,21,15,52,9.90
2009,02,21,15,53,9.90
2009,02,21,15,54,9.90
2009,02,21,15,55,9.90
2009,02,21,15,56,9.90
2009,02,21,15,57,9.90
2009,02,21,15,58,9.90
2009,02,21,15,59,9.90
2009,02,21,16,00,9.90
2009,02,21,16,01,10.00
2009,02,21,16,02,10.10
2009,02,21,16,03,10.10
2009,02,21,16,04,10.10
2009,02,21,16,05,10.10
2009,02,21,16,06,10.10
2009,02,21,16,07,10.10
2009,02,21,16,08,10.10
2009,02,21,16,09,10.10
2009,02,21,16,10,10.10
2009,02,21,16,11,10.10
2009,02,21,16,12,10.10
2009,02,21,16,13,10.10
2009,02,21,16,14,10.00
2009,02,21,16,15,9.90
2009,02,21,16,16,9.90
2009,02,21,16,17,9.90
2009,02,21,16,18,9.90
2009,02,21,16,19,9.90
2009,02,21,16,20,9.80
2009,02,21,16,21,9.80
2009,02,21,16,22,9.80
2009,02,21,16,23,9.70
2009,02,21,16,24,9.70
2009,02,21,16,25,9.70
2009,02,21,16,26,9.70
2009,02,21,16,27,9.70
2009,02,21,16,28,9.70
2009,02,21,16,29,9.70
2009,02,21,16,30,9.70
2009,02,21,16,31,9.70
2009,02,21,16,32,9.80
2009,02,21,16,33,9.80
2009,02,21,16,34,9.80
2009,02,21,16,35,9.90
2009,02,21,16,36,9.90
2009,02,21,16,37,9.90
2009,02,21,16,38,10.10
2009,02,21,16,39,10.10
2009,02,21,16,40,10.20
2009,02,21,16,41,10.20
2009,02,21,16,42,10.30
2009,02,21,16,43,10.30
2009,02,21,16,44,10.30
2009,02,21,16,45,10.40
2009,02,21,16,46,10.40
2009,02,21,16,47,10.30
2009,02,21,16,48,10.30
2009,02,21,16,49,10.30
2009,02,21,16,50,10.20
2009,02,21,16,51,10.20
2009,02,21,16,52,10.20
2009,02,21,16,53,10.10
2009,02,21,16,54,10.10
2009,02,21,16,55,10.10
2009,02,21,16,56,10.00
2009,02,21,16,57,9.90
2009,02,21,16,58,9.90
2009,02,21,16,59,9.90
2009,02,21,17,00,9.80
2009,02,21,17,01,9.80
2009,02,21,17,02,9.70
2009,02,21,17,03,9.70
2009,02,21,17,04,9.60
2009,02,21,17,05,9.50
2009,02,21,17,06,9.50
2009,02,21,17,07,9.40
2009,02,21,17,08,9.40
2009,02,21,17,09,9.40
2009,02,21,17,10,9.30
2009,02,21,17,11,9.30
2009,02,21,17,12,9.20
2009,02,21,17,13,9.20
2009,02,21,17,14,9.20
2009,02,21,17,15,9.10
2009,02,21,17,16,9.10
2009,02,21,17,17,9.00
2009,02,21,17,18,8.90
2009,02,21,17,19,8.90
2009,02,21,17,20,8.80
2009,02,21,17,21,8.80
2009,02,21,17,22,8.70
2009,02,21,17,23,8.70
2009,02,21,17,24,8.60
2009,02,21,17,25,8.50
2009,02,21,17,26,8.50
2009,02,21,17,27,8.40
2009,02,21,17,28,8.30
2009,02,21,17,29,8.30
2009,02,21,17,30,8.20
2009,02,21,17,31,8.20
2009,02,21,17,32,8.20
2009,02,21,17,33,8.10
2009,02,21,17,34,8.00
2009,02,21,17,35,8.00
2009,02,21,17,36,7.90
2009,02,21,17,37,7.90
2009,02,21,17,38,7.80
2009,02,21,17,39,7.80
2009,02,21,17,40,7.80
2009,02,21,17,41,7.70
2009,02,21,17,42,7.70
2009,02,21,17,43,7.60
2009,02,21,17,44,7.50
2009,02,21,17,45,7.40
2009,02,21,17,46,7.40
2009,02,21,17,47,7.30
2009,02,21,17,48,7.30
2009,02,21,17,49,7.20
2009,02,21,17,50,7.10
2009,02,21,17,51,7.10
2009,02,21,17,52,7.00
2009,02,21,17,53,7.00
2009,02,21,17,54,7.00
2009,02,21,17,55,7.00
2009,02,21,17,56,6.90
2009,02,21,17,57,6.90
2009,02,21,17,58,6.90
2009,02,21,17,59,6.90
2009,02,21,18,00,7.00
2009,02,21,18,01,7.00
2009,02,21,18,02,6.90